loading
|

STARLINK-32315, 60740

Orbit data source: Space-Track

STARLINK-32315, 60740 is a payload satellite owned by SpaceX/Seattle (US) in LEO that was launched on Wed, 28 Aug 2024 UTC via an FALCON 9 launch vehicle from the Air Force Eastern Test Range (AFETR). Payloads include a variety of satellites, spacecraft, and rockets equipped with specific instruments for various scientific and technological missions. These include communications satellites like Starlink; space stations such as the ISS; scientific satellites like the Hubble; Earth observation satellites from companies like Planet Labs, Umbra, and HawkEye 360; GPS; miniature CubeSats for education and research; and military/defense satellites.

Loading next visibility...
Loading greatness...
STARLINK-32315 details
Identifier
60740, 2024-152W
Orbit
LEO
Last TLE update10 hours ago
Origin
Flag of USSpaceX/Seattle (US)
ManufacturerSpaceX/Seattle
Mission statusOperational
MissionUnknown
Bus & MotorSTARLINK V2M, Unknown motor
Mass750 kg wet, ~700 kg dry
Launch date (UTC)
2024-08-28 (3 weeks ago)
Launch vehicle
FALCON 9
Launch site
Air Force Eastern Test Range (AFETR)
Object type
Payload
Rocket body
Debris
Radar Cross SectionLarge (>1 m²)

Expand to show TLE details & history

TLE from 10 hours ago
0 STARLINK-32315
1 60740U 24152W   24258.91667824 -.01676317  00000-0 -17562-1 0  9990
2 60740  53.1542 262.5127 0000648  99.5132 288.3000 15.66949303  3933
Epoch: 2024-09-14T22:00Z
Definitive object data (Epoch: 2024-09-14T22:00:00.999Z)
Latitude21.9735°
Longitude-44.36201°
Altitude368.154 km
Speed7.692 km/s
True Right ascension18h 40m 02s
True Declination21° 50' 51"
Sunlit
Object was in daylight at TLE epoch
Predictive object data (real-time)
Latitude-14.40353°
Longitude127.14756°
Altitude375.979 km
Speed7.684 km/s
Apparent Right ascension08h 42m 56s
Apparent Declination-36° 43' 48"
Sunlit
Object is in daylight
Predictive observer data (real-time)
Local Sidereal Time00:33:23
Azimuth105.15° ESE
Elevation-45.479°
Doppler factor1
Orbital elements
Apogee368.337 km
Perigee367.463 km
Semi-major axis6,746.037 km
Eccentricity0.0000648
Inclination53.1542°
RAAN262.5127°
Arg. of periapsis99.5132°
True anomaly288.29295°
Mean anomaly288.3°
Eccentric anomaly288.29647°
Mean motion3.91715 °/min
BSTAR-0.017562
Period91.9 mins
No data available

STARLINK-32315 Visibility forecast

Observer location: 39.9160978°, -105.1181434

STARLINK-32315 is not visible in the next 10 days
Span
Click to sort rows by Start time (UTC) header in descending order
Start Az.
Max El. time (UTC)
Max El. Az.
Max El.
End time (UTC)
End Az.